Home   Weather   Soest   Past weeks

Flag for Germany Past Weather in Soest, North Rhine-Westphalia, Germany — Yesterday and Last 2 Weeks

54 °F


Feels Like: 51 °F
Forecast: 51 / 55 °F
Wind: 8 mph from West

Location: Dortmund / Wickede

Current Time: Oct 27, 2016 at 1:13:04 PM

Latest Report: Oct 27, 2016 at 12:20 PM

Visibility: 3 mi

Pressure: 30.48 "Hg

Humidity: 77%

Dew Point: 46 °F

Location of SoestLocation

Past Weather in Soest — Graph


Soest Temperature Yesterday

Maximum temperature yesterday: 50 °F (at 12:20 PM)
Minimum temperature yesterday: 43 °F (at 7:50 PM)
Average temperature yesterday: 47 °F

High & Low Weather Summary for the Past Weeks

High66 °F (Oct 16, 3:20 PM)100% (Oct 23, 7:50 AM)30.48 "Hg (Oct 23, 7:50 AM)
Low32 °F (Oct 23, 6:50 AM)40% (Oct 16, 3:20 PM)29.65 "Hg (Oct 15, 5:20 AM)
Average48 °F80%30.01 "Hg
* Reported Oct 12 11:20 AM — Oct 27 11:50 AM, Soest, Weather by CustomWeather, © 2016

Note: Actual official high and low records may vary slightly from our data, if they occured in-between our weather recording intervals... More about our weather records


Soest Weather History for the Previous 24 Hours

Scroll right to see more
Time TempWeatherWind HumidityBarometerVisibility
11:50 AM
Thu, Oct 27
52 °FPartly sunny.12 mph82%30.48 "Hg4 mi
11:20 AM52 °FFog.10 mph82%30.48 "Hg3 mi
10:50 AM52 °FFog.7 mph82%30.48 "Hg3 mi
10:20 AM52 °FLow clouds.9 mph82%30.45 "Hg4 mi
9:50 AM50 °FPartly sunny.7 mph82%30.45 "Hg4 mi
9:20 AM50 °FFog.9 mph82%30.45 "Hg3 mi
8:50 AM48 °FFog.9 mph87%30.45 "Hg3 mi
8:20 AM48 °FFog.8 mph82%30.42 "Hg3 mi
7:50 AM48 °FPassing clouds.9 mph82%30.42 "Hg4 mi
7:20 AM48 °FPassing clouds.10 mph82%30.42 "Hg4 mi
6:50 AM48 °FPassing clouds.9 mph82%30.42 "Hg5 mi
6:20 AM48 °FPassing clouds.10 mph82%30.42 "Hg5 mi
5:50 AM48 °FPassing clouds.12 mph82%30.42 "HgN/A
5:20 AM48 °FOvercast.9 mph82%30.42 "HgN/A
9:50 PM
Wed, Oct 26
46 °FPassing clouds.5 mph82%30.42 "Hg4 mi
9:20 PM46 °FPassing clouds.5 mph82%30.39 "HgN/A
8:50 PM46 °FPassing clouds.5 mph82%30.39 "HgN/A
8:20 PM46 °FClear.5 mph87%30.39 "Hg10 mi
7:50 PM43 °FClear.3 mph87%30.39 "Hg10 mi
7:20 PM45 °FClear.3 mph87%30.36 "Hg10 mi
6:50 PM45 °FPassing clouds.2 mph81%30.36 "HgN/A
6:20 PM46 °FPassing clouds.2 mph82%30.36 "Hg6 mi
5:50 PM48 °FScattered clouds.2 mph82%30.36 "HgN/A
5:20 PM48 °FScattered clouds.2 mph76%30.36 "HgN/A
4:50 PM50 °FBroken clouds.2 mph71%30.36 "HgN/A
4:20 PM50 °FBroken clouds.2 mph71%30.36 "HgN/A
3:50 PM50 °FPartly sunny.1 mph67%30.36 "HgN/A
3:20 PM50 °FPartly sunny.2 mph71%30.36 "HgN/A
2:50 PM50 °FPartly sunny.3 mph71%30.36 "HgN/A
2:20 PM50 °FOvercast.1 mph67%30.36 "HgN/A
1:50 PM50 °FOvercast.2 mph67%30.36 "HgN/A
1:20 PM50 °FOvercast.2 mph71%30.36 "HgN/A
Weather by CustomWeather, © 2016

See weather overviewHow to use our weather pages